Location: Izdebno
(52.6670°N, 16.2170°E)
Time: 04:53:18
(UTC+01:00)

BlueWalker 3 - Pass Details

Date: 01 December 2023
Orbit: 485 x 500 km, 53.2° (Epoch: 29 February)

Event Time Altitude Azimuth Distance (km) Brightness Sun altitude
Exits shadow 03:59:18 15° 99° (E) 1,422 4.9 -32.9°
Drops below altitude 10° 04:00:00 10° 99° (E) 1,699 5.4 -32.8°
Enters shadow 04:58:25 -65° 294° (WNW) 12,095 8.9 -23.9°
